This is the latest recevied weather packets stored in our database for station/object N0QV. If no packets are shown the sender has not sent any weather packets the latest 10 day(s).
| Time | Temp. | Humidity | Pressure | Rain* | Wind** | Luminosity | Snow |
|---|---|---|---|---|---|---|---|
| 1788192212 | 27.78° C | 77% | 1011.9 hPa | 0 mm | - | 228 W/m² | - |
| 1788191907 | 27.78° C | 77% | 1011.7 hPa | 0 mm | - | 328 W/m² | - |
| 1788191606 | 27.78° C | 78% | 1011.7 hPa | 0 mm | - | 311 W/m² | - |
| 1788191303 | 27.22° C | 79% | 1011.4 hPa | 0 mm | - | 247 W/m² | - |
| 1788190999 | 27.22° C | 79% | 1011.3 hPa | 0 mm | - | 262 W/m² | - |
| 1788190697 | 27.22° C | 80% | 1011.6 hPa | 0 mm | - | 242 W/m² | - |
| 1788190393 | 27.22° C | 81% | 1011.5 hPa | 0 mm | - | 197 W/m² | - |
| 1788190089 | 27.22° C | 79% | 1011.2 hPa | 0 mm | - | 203 W/m² | - |
| 1788189785 | 26.67° C | 80% | 1011.3 hPa | 0 mm | - | 441 W/m² | - |
| 1788189480 | 26.67° C | 81% | 1011.3 hPa | 0 mm | - | 270 W/m² | - |
| 1788189179 | 25.56° C | 83% | 1011.1 hPa | 0 mm | - | 322 W/m² | - |
| 1788188874 | 25.56° C | 83% | 1011.3 hPa | 0 mm | - | 263 W/m² | - |
| 1788188570 | 25° C | 84% | 1011.3 hPa | 0 mm | - | 311 W/m² | - |
| 1788188268 | 25° C | 85% | 1011.3 hPa | 0 mm | - | 215 W/m² | - |
| 1788187965 | 25° C | 85% | 1011.3 hPa | 0 mm | - | 208 W/m² | - |
| 1788187660 | 24.44° C | 85% | 1011.2 hPa | 0 mm | - | 180 W/m² | - |
| 1788187357 | 25° C | 85% | 1010.9 hPa | 0 mm | - | 162 W/m² | - |
| 1788187060 | 25° C | 84% | 1011.2 hPa | 0 mm | - | 181 W/m² | - |
| 1788186752 | 25° C | 85% | 1010.9 hPa | 0 mm | - | 184 W/m² | - |
| 1788186447 | 24.44° C | 85% | 1011.1 hPa | 0 mm | - | 163 W/m² | - |
| 1788186142 | 24.44° C | 85% | 1011.1 hPa | 0 mm | - | 156 W/m² | - |
| 1788185841 | 24.44° C | 85% | 1011.3 hPa | 0 mm | - | 149 W/m² | - |
| 1788185536 | 25° C | 85% | 1011.1 hPa | 0 mm | - | 140 W/m² | - |
| 1788185236 | 25° C | 86% | 1011 hPa | 0 mm | - | 140 W/m² | - |
| 1788184931 | 24.44° C | 85% | 1010.9 hPa | 0 mm | - | 144 W/m² | - |
* Rain latest hour (hover to see other rain measurements)
** Current wind speed in m/s (hover to see current wind gust speed)